Year,Month,Day,Hour,Minute,Value (Times are PST for temperature in C)
2016,06,04,00,00,19.60
2016,06,04,00,01,19.60
2016,06,04,00,02,19.60
2016,06,04,00,03,19.70
2016,06,04,00,04,19.70
2016,06,04,00,05,19.70
2016,06,04,00,06,19.70
2016,06,04,00,07,19.70
2016,06,04,00,08,19.70
2016,06,04,00,09,19.70
2016,06,04,00,10,19.70
2016,06,04,00,11,19.60
2016,06,04,00,12,19.60
2016,06,04,00,13,19.60
2016,06,04,00,14,19.70
2016,06,04,00,15,19.70
2016,06,04,00,16,19.70
2016,06,04,00,17,19.60
2016,06,04,00,18,19.60
2016,06,04,00,19,19.60
2016,06,04,00,20,19.60
2016,06,04,00,21,19.60
2016,06,04,00,22,19.60
2016,06,04,00,23,19.60
2016,06,04,00,24,19.60
2016,06,04,00,25,19.50
2016,06,04,00,26,19.60
2016,06,04,00,27,19.60
2016,06,04,00,28,19.60
2016,06,04,00,29,19.60
2016,06,04,00,30,19.60
2016,06,04,00,31,19.60
2016,06,04,00,32,19.60
2016,06,04,00,33,19.50
2016,06,04,00,34,19.50
2016,06,04,00,35,19.50
2016,06,04,00,36,19.50
2016,06,04,00,37,19.50
2016,06,04,00,38,19.50
2016,06,04,00,39,19.50
2016,06,04,00,40,19.50
2016,06,04,00,41,19.50
2016,06,04,00,42,19.50
2016,06,04,00,43,19.50
2016,06,04,00,44,19.50
2016,06,04,00,45,19.50
2016,06,04,00,46,19.40
2016,06,04,00,47,19.40
2016,06,04,00,48,19.40
2016,06,04,00,49,19.40
2016,06,04,00,50,19.40
2016,06,04,00,51,19.40
2016,06,04,00,52,19.40
2016,06,04,00,53,19.40
2016,06,04,00,54,19.40
2016,06,04,00,55,19.40
2016,06,04,00,56,19.40
2016,06,04,00,57,19.30
2016,06,04,00,58,19.30
2016,06,04,00,59,19.30
2016,06,04,01,00,19.30
2016,06,04,01,01,19.30
2016,06,04,01,02,19.30
2016,06,04,01,03,19.30
2016,06,04,01,04,19.30
2016,06,04,01,05,19.30
2016,06,04,01,06,19.20
2016,06,04,01,07,19.20
2016,06,04,01,08,19.20
2016,06,04,01,09,19.20
2016,06,04,01,10,19.20
2016,06,04,01,11,19.20
2016,06,04,01,12,19.20
2016,06,04,01,13,19.20
2016,06,04,01,14,19.20
2016,06,04,01,15,19.20
2016,06,04,01,16,19.20
2016,06,04,01,17,19.20
2016,06,04,01,18,19.20
2016,06,04,01,19,19.20
2016,06,04,01,20,19.20
2016,06,04,01,21,19.20
2016,06,04,01,22,19.20
2016,06,04,01,23,19.20
2016,06,04,01,24,19.20
2016,06,04,01,25,19.10
2016,06,04,01,26,19.10
2016,06,04,01,27,19.10
2016,06,04,01,28,19.10
2016,06,04,01,29,19.10
2016,06,04,01,30,19.10
2016,06,04,01,31,19.10
2016,06,04,01,32,19.10
2016,06,04,01,33,19.10
2016,06,04,01,34,19.00
2016,06,04,01,35,19.00
2016,06,04,01,36,19.00
2016,06,04,01,37,19.00
2016,06,04,01,38,19.00
2016,06,04,01,39,19.00
2016,06,04,01,40,18.90
2016,06,04,01,41,18.90
2016,06,04,01,42,18.90
2016,06,04,01,43,18.90
2016,06,04,01,44,18.90
2016,06,04,01,45,18.90
2016,06,04,01,46,18.90
2016,06,04,01,47,18.90
2016,06,04,01,48,18.90
2016,06,04,01,49,18.90
2016,06,04,01,50,18.90
2016,06,04,01,51,18.90
2016,06,04,01,52,18.90
2016,06,04,01,53,18.90
2016,06,04,01,54,18.90
2016,06,04,01,55,18.90
2016,06,04,01,56,18.90
2016,06,04,01,57,18.90
2016,06,04,01,58,18.90
2016,06,04,01,59,18.90
2016,06,04,02,00,18.90
2016,06,04,02,01,18.90
2016,06,04,02,02,18.90
2016,06,04,02,03,18.90
2016,06,04,02,04,18.90
2016,06,04,02,05,18.90
2016,06,04,02,06,18.90
2016,06,04,02,07,18.90
2016,06,04,02,08,18.90
2016,06,04,02,09,18.90
2016,06,04,02,10,18.90
2016,06,04,02,11,18.90
2016,06,04,02,12,18.90
2016,06,04,02,13,18.90
2016,06,04,02,14,18.90
2016,06,04,02,15,18.90
2016,06,04,02,16,18.90
2016,06,04,02,17,18.90
2016,06,04,02,18,19.00
2016,06,04,02,19,19.00
2016,06,04,02,20,19.00
2016,06,04,02,21,19.00
2016,06,04,02,22,19.00
2016,06,04,02,23,19.00
2016,06,04,02,24,19.10
2016,06,04,02,25,19.10
2016,06,04,02,26,19.10
2016,06,04,02,27,19.20
2016,06,04,02,28,19.20
2016,06,04,02,29,19.20
2016,06,04,02,30,19.20
2016,06,04,02,31,19.20
2016,06,04,02,32,19.20
2016,06,04,02,33,19.20
2016,06,04,02,34,19.20
2016,06,04,02,35,19.20
2016,06,04,02,36,19.20
2016,06,04,02,37,19.20
2016,06,04,02,38,19.20
2016,06,04,02,39,19.20
2016,06,04,02,40,19.20
2016,06,04,02,41,19.20
2016,06,04,02,42,19.20
2016,06,04,02,43,19.20
2016,06,04,02,44,19.20
2016,06,04,02,45,19.20
2016,06,04,02,46,19.20
2016,06,04,02,47,19.20
2016,06,04,02,48,19.20
2016,06,04,02,49,19.20
2016,06,04,02,50,19.10
2016,06,04,02,51,19.10
2016,06,04,02,52,19.10
2016,06,04,02,53,19.10
2016,06,04,02,54,19.10
2016,06,04,02,55,19.10
2016,06,04,02,56,19.10
2016,06,04,02,57,19.10
2016,06,04,02,58,19.10
2016,06,04,02,59,19.10
2016,06,04,03,00,19.10
2016,06,04,03,01,19.10
2016,06,04,03,02,19.10
2016,06,04,03,03,19.10
2016,06,04,03,04,19.10
2016,06,04,03,05,19.10
2016,06,04,03,06,19.10
2016,06,04,03,07,19.10
2016,06,04,03,08,19.10
2016,06,04,03,09,19.10
2016,06,04,03,10,19.10
2016,06,04,03,11,19.10
2016,06,04,03,12,19.10
2016,06,04,03,13,19.10
2016,06,04,03,14,19.10
2016,06,04,03,15,19.10
2016,06,04,03,16,19.10
2016,06,04,03,17,19.10
2016,06,04,03,18,19.10
2016,06,04,03,19,19.10
2016,06,04,03,20,19.10
2016,06,04,03,21,19.10
2016,06,04,03,22,19.10
2016,06,04,03,23,19.10
2016,06,04,03,24,19.10
2016,06,04,03,25,19.10
2016,06,04,03,26,19.10
2016,06,04,03,27,19.10
2016,06,04,03,28,19.00
2016,06,04,03,29,19.00
2016,06,04,03,30,19.00
2016,06,04,03,31,19.00
2016,06,04,03,32,19.00
2016,06,04,03,33,18.90
2016,06,04,03,34,18.90
2016,06,04,03,35,18.90
2016,06,04,03,36,18.90
2016,06,04,03,37,18.90
2016,06,04,03,38,18.90
2016,06,04,03,39,18.90
2016,06,04,03,40,18.90
2016,06,04,03,41,18.90
2016,06,04,03,42,18.90
2016,06,04,03,43,18.90
2016,06,04,03,44,18.90
2016,06,04,03,45,18.90
2016,06,04,03,46,18.90
2016,06,04,03,47,18.90
2016,06,04,03,48,18.90
2016,06,04,03,49,18.80
2016,06,04,03,50,18.80
2016,06,04,03,51,18.80
2016,06,04,03,52,18.80
2016,06,04,03,53,18.80
2016,06,04,03,54,18.80
2016,06,04,03,55,18.80
2016,06,04,03,56,18.80
2016,06,04,03,57,18.80
2016,06,04,03,58,18.80
2016,06,04,03,59,18.80
2016,06,04,04,00,18.80
2016,06,04,04,01,18.80
2016,06,04,04,02,18.80
2016,06,04,04,03,18.80
2016,06,04,04,04,18.80
2016,06,04,04,05,18.80
2016,06,04,04,06,18.80
2016,06,04,04,07,18.80
2016,06,04,04,08,18.80
2016,06,04,04,09,18.80
2016,06,04,04,10,18.80
2016,06,04,04,11,18.80
2016,06,04,04,12,18.80
2016,06,04,04,13,18.70
2016,06,04,04,14,18.70
2016,06,04,04,15,18.70
2016,06,04,04,16,18.70
2016,06,04,04,17,18.70
2016,06,04,04,18,18.70
2016,06,04,04,19,18.70
2016,06,04,04,20,18.70
2016,06,04,04,21,18.70
2016,06,04,04,22,18.70
2016,06,04,04,23,18.70
2016,06,04,04,24,18.70
2016,06,04,04,25,18.70
2016,06,04,04,26,18.70
2016,06,04,04,27,18.70
2016,06,04,04,28,18.70
2016,06,04,04,29,18.70
2016,06,04,04,30,18.70
2016,06,04,04,31,18.70
2016,06,04,04,32,18.70
2016,06,04,04,33,18.70
2016,06,04,04,34,18.60
2016,06,04,04,35,18.60
2016,06,04,04,36,18.60
2016,06,04,04,37,18.60
2016,06,04,04,38,18.70
2016,06,04,04,39,18.70
2016,06,04,04,40,18.70
2016,06,04,04,41,18.70
2016,06,04,04,42,18.70
2016,06,04,04,43,18.70
2016,06,04,04,44,18.70
2016,06,04,04,45,18.70
2016,06,04,04,46,18.70
2016,06,04,04,47,18.70
2016,06,04,04,48,18.70
2016,06,04,04,49,18.70
2016,06,04,04,50,18.70
2016,06,04,04,51,18.70
2016,06,04,04,52,18.70
2016,06,04,04,53,18.70
2016,06,04,04,54,18.70
2016,06,04,04,55,18.70
2016,06,04,04,56,18.70
2016,06,04,04,57,18.70
2016,06,04,04,58,18.70
2016,06,04,04,59,18.70
2016,06,04,05,00,18.70
2016,06,04,05,01,18.70
2016,06,04,05,02,18.70
2016,06,04,05,03,18.60
2016,06,04,05,04,18.60
2016,06,04,05,05,18.70
2016,06,04,05,06,18.70
2016,06,04,05,07,18.60
2016,06,04,05,08,18.60
2016,06,04,05,09,18.60
2016,06,04,05,10,18.60
2016,06,04,05,11,18.60
2016,06,04,05,12,18.60
2016,06,04,05,13,18.60
2016,06,04,05,14,18.60
2016,06,04,05,15,18.60
2016,06,04,05,16,18.60
2016,06,04,05,17,18.50
2016,06,04,05,18,18.50
2016,06,04,05,19,18.50
2016,06,04,05,20,18.50
2016,06,04,05,21,18.50
2016,06,04,05,22,18.50
2016,06,04,05,23,18.50
2016,06,04,05,24,18.50
2016,06,04,05,25,18.50
2016,06,04,05,26,18.40
2016,06,04,05,27,18.40
2016,06,04,05,28,18.40
2016,06,04,05,29,18.40
2016,06,04,05,30,18.40
2016,06,04,05,31,18.40
2016,06,04,05,32,18.30
2016,06,04,05,33,18.30
2016,06,04,05,34,18.30
2016,06,04,05,35,18.30
2016,06,04,05,36,18.30
2016,06,04,05,37,18.30
2016,06,04,05,38,18.30
2016,06,04,05,39,18.30
2016,06,04,05,40,18.30
2016,06,04,05,41,18.30
2016,06,04,05,42,18.30
2016,06,04,05,43,18.30
2016,06,04,05,44,18.30
2016,06,04,05,45,18.30
2016,06,04,05,46,18.30
2016,06,04,05,47,18.30
2016,06,04,05,48,18.30
2016,06,04,05,49,18.30
2016,06,04,05,50,18.40
2016,06,04,05,51,18.40
2016,06,04,05,52,18.40
2016,06,04,05,53,18.40
2016,06,04,05,54,18.40
2016,06,04,05,55,18.40
2016,06,04,05,56,18.40
2016,06,04,05,57,18.50
2016,06,04,05,58,18.50
2016,06,04,05,59,18.50
2016,06,04,06,00,18.40
2016,06,04,06,01,18.40
2016,06,04,06,02,18.40
2016,06,04,06,03,18.50
2016,06,04,06,04,18.50
2016,06,04,06,05,18.60
2016,06,04,06,06,18.60
2016,06,04,06,07,18.60
2016,06,04,06,08,18.60
2016,06,04,06,09,18.60
2016,06,04,06,10,18.60
2016,06,04,06,11,18.60
2016,06,04,06,12,18.60
2016,06,04,06,13,18.70
2016,06,04,06,14,18.70
2016,06,04,06,15,18.70
2016,06,04,06,16,18.70
2016,06,04,06,17,18.80
2016,06,04,06,18,18.80
2016,06,04,06,19,18.80
2016,06,04,06,20,18.80
2016,06,04,06,21,18.90
2016,06,04,06,22,18.90
2016,06,04,06,23,18.90
2016,06,04,06,24,18.90
2016,06,04,06,25,18.90
2016,06,04,06,26,18.90
2016,06,04,06,27,19.00
2016,06,04,06,28,19.00
2016,06,04,06,29,19.00
2016,06,04,06,30,19.10
2016,06,04,06,31,19.10
2016,06,04,06,32,19.10
2016,06,04,06,33,19.10
2016,06,04,06,34,19.10
2016,06,04,06,35,19.20
2016,06,04,06,36,19.20
2016,06,04,06,37,19.20
2016,06,04,06,38,19.30
2016,06,04,06,39,19.30
2016,06,04,06,40,19.30
2016,06,04,06,41,19.30
2016,06,04,06,42,19.30
2016,06,04,06,43,19.40
2016,06,04,06,44,19.40
2016,06,04,06,45,19.40
2016,06,04,06,46,19.40
2016,06,04,06,47,19.40
2016,06,04,06,48,19.50
2016,06,04,06,49,19.50
2016,06,04,06,50,19.60
2016,06,04,06,51,19.60
2016,06,04,06,52,19.60
2016,06,04,06,53,19.60
2016,06,04,06,54,19.60
2016,06,04,06,55,19.70
2016,06,04,06,56,19.70
2016,06,04,06,57,19.70
2016,06,04,06,58,19.70
2016,06,04,06,59,19.70
2016,06,04,07,00,19.70
2016,06,04,07,01,19.80
2016,06,04,07,02,19.80
2016,06,04,07,03,19.80
2016,06,04,07,04,19.80
2016,06,04,07,05,19.80
2016,06,04,07,06,19.80
2016,06,04,07,07,19.80
2016,06,04,07,08,19.80
2016,06,04,07,09,19.80
2016,06,04,07,10,19.80
2016,06,04,07,11,19.90
2016,06,04,07,12,19.90
2016,06,04,07,13,20.00
2016,06,04,07,14,20.10
2016,06,04,07,15,20.10
2016,06,04,07,16,20.20
2016,06,04,07,17,20.20
2016,06,04,07,18,20.30
2016,06,04,07,19,20.30
2016,06,04,07,20,20.40
2016,06,04,07,21,20.50
2016,06,04,07,22,20.60
2016,06,04,07,23,20.60
2016,06,04,07,24,20.60
2016,06,04,07,25,20.60
2016,06,04,07,26,20.60
2016,06,04,07,27,20.60
2016,06,04,07,28,20.60
2016,06,04,07,29,20.60
2016,06,04,07,30,20.60
2016,06,04,07,31,20.60
2016,06,04,07,32,20.60
2016,06,04,07,33,20.60
2016,06,04,07,34,20.50
2016,06,04,07,35,20.50
2016,06,04,07,36,20.40
2016,06,04,07,37,20.40
2016,06,04,07,38,20.40
2016,06,04,07,39,20.40
2016,06,04,07,40,20.40
2016,06,04,07,41,20.40
2016,06,04,07,42,20.50
2016,06,04,07,43,20.60
2016,06,04,07,44,20.70
2016,06,04,07,45,20.70
2016,06,04,07,46,20.80
2016,06,04,07,47,20.80
2016,06,04,07,48,20.80
2016,06,04,07,49,20.80
2016,06,04,07,50,20.90
2016,06,04,07,51,20.90
2016,06,04,07,52,20.90
2016,06,04,07,53,21.00
2016,06,04,07,54,21.00
2016,06,04,07,55,21.10
2016,06,04,07,56,21.10
2016,06,04,07,57,21.20
2016,06,04,07,58,21.20
2016,06,04,07,59,21.20
2016,06,04,08,00,21.20
2016,06,04,08,01,21.30
2016,06,04,08,02,21.30
2016,06,04,08,03,21.30
2016,06,04,08,04,21.30
2016,06,04,08,05,21.40
2016,06,04,08,06,21.40
2016,06,04,08,07,21.30
2016,06,04,08,08,21.20
2016,06,04,08,09,21.20
2016,06,04,08,10,21.20
2016,06,04,08,11,21.30
2016,06,04,08,12,21.30
2016,06,04,08,13,21.30
2016,06,04,08,14,21.40
2016,06,04,08,15,21.40
2016,06,04,08,16,21.40
2016,06,04,08,17,21.40
2016,06,04,08,18,21.40
2016,06,04,08,19,21.40
2016,06,04,08,20,21.40
2016,06,04,08,21,21.50
2016,06,04,08,22,21.60
2016,06,04,08,23,21.70
2016,06,04,08,24,21.70
2016,06,04,08,25,21.70
2016,06,04,08,26,21.60
2016,06,04,08,27,21.60
2016,06,04,08,28,21.60
2016,06,04,08,29,21.60
2016,06,04,08,30,21.70
2016,06,04,08,31,21.60
2016,06,04,08,32,21.60
2016,06,04,08,33,21.60
2016,06,04,08,34,21.70
2016,06,04,08,35,21.80
2016,06,04,08,36,21.80
2016,06,04,08,37,21.80
2016,06,04,08,38,21.80
2016,06,04,08,39,21.80
2016,06,04,08,40,21.80
2016,06,04,08,41,21.80
2016,06,04,08,42,21.80
2016,06,04,08,43,21.70
2016,06,04,08,44,21.60
2016,06,04,08,45,21.60
2016,06,04,08,46,21.60
2016,06,04,08,47,21.60
2016,06,04,08,48,21.60
2016,06,04,08,49,21.60
2016,06,04,08,50,21.60
2016,06,04,08,51,21.70
2016,06,04,08,52,21.70
2016,06,04,08,53,21.70
2016,06,04,08,54,21.70
2016,06,04,08,55,21.70
2016,06,04,08,56,21.70
2016,06,04,08,57,21.70
2016,06,04,08,58,21.70
2016,06,04,08,59,21.80
2016,06,04,09,00,21.80
2016,06,04,09,01,21.80
2016,06,04,09,02,21.80
2016,06,04,09,03,21.90
2016,06,04,09,04,22.00
2016,06,04,09,05,22.10
2016,06,04,09,06,22.20
2016,06,04,09,07,22.20
2016,06,04,09,08,22.30
2016,06,04,09,09,22.30
2016,06,04,09,10,22.30
2016,06,04,09,11,22.30
2016,06,04,09,12,22.20
2016,06,04,09,13,22.20
2016,06,04,09,14,22.10
2016,06,04,09,15,22.10
2016,06,04,09,16,22.10
2016,06,04,09,17,22.10
2016,06,04,09,18,22.10
2016,06,04,09,19,22.20
2016,06,04,09,20,22.20
2016,06,04,09,21,22.20
2016,06,04,09,22,22.20
2016,06,04,09,23,22.20
2016,06,04,09,24,22.20
2016,06,04,09,25,22.20
2016,06,04,09,26,22.20
2016,06,04,09,27,22.30
2016,06,04,09,28,22.40
2016,06,04,09,29,22.40
2016,06,04,09,30,22.40
2016,06,04,09,31,22.30
2016,06,04,09,32,22.20
2016,06,04,09,33,22.20
2016,06,04,09,34,22.20
2016,06,04,09,35,22.20
2016,06,04,09,36,22.30
2016,06,04,09,37,22.40
2016,06,04,09,38,22.40
2016,06,04,09,39,22.40
2016,06,04,09,40,22.50
2016,06,04,09,41,22.60
2016,06,04,09,42,22.70
2016,06,04,09,43,22.70
2016,06,04,09,44,22.70
2016,06,04,09,45,22.70
2016,06,04,09,46,22.70
2016,06,04,09,47,22.70
2016,06,04,09,48,22.70
2016,06,04,09,49,22.80
2016,06,04,09,50,22.80
2016,06,04,09,51,23.00
2016,06,04,09,52,23.10
2016,06,04,09,53,23.10
2016,06,04,09,54,23.10
2016,06,04,09,55,23.20
2016,06,04,09,56,23.20
2016,06,04,09,57,23.20
2016,06,04,09,58,23.20
2016,06,04,09,59,23.10
2016,06,04,10,00,23.10
2016,06,04,10,01,23.00
2016,06,04,10,02,23.00
2016,06,04,10,03,23.00
2016,06,04,10,04,23.00
2016,06,04,10,05,23.00
2016,06,04,10,06,22.90
2016,06,04,10,07,22.90
2016,06,04,10,08,22.90
2016,06,04,10,09,23.00
2016,06,04,10,10,23.00
2016,06,04,10,11,23.10
2016,06,04,10,12,23.10
2016,06,04,10,13,23.10
2016,06,04,10,14,23.10
2016,06,04,10,15,23.10
2016,06,04,10,16,23.20
2016,06,04,10,17,23.40
2016,06,04,10,18,23.50
2016,06,04,10,19,23.50
2016,06,04,10,20,23.50
2016,06,04,10,21,23.50
2016,06,04,10,22,23.60
2016,06,04,10,23,23.60
2016,06,04,10,24,23.60
2016,06,04,10,25,23.70
2016,06,04,10,26,23.70
2016,06,04,10,27,23.70
2016,06,04,10,28,23.80
2016,06,04,10,29,23.80
2016,06,04,10,30,23.90
2016,06,04,10,31,23.90
2016,06,04,10,32,23.90
2016,06,04,10,33,24.00
2016,06,04,10,34,24.10
2016,06,04,10,35,24.20
2016,06,04,10,36,24.10
2016,06,04,10,37,24.10
2016,06,04,10,38,24.10
2016,06,04,10,39,24.00
2016,06,04,10,40,23.90
2016,06,04,10,41,23.80
2016,06,04,10,42,23.70
2016,06,04,10,43,23.70
2016,06,04,10,44,23.70
2016,06,04,10,45,23.90
2016,06,04,10,46,23.90
2016,06,04,10,47,23.90
2016,06,04,10,48,24.00
2016,06,04,10,49,24.00
2016,06,04,10,50,24.00
2016,06,04,10,51,24.00
2016,06,04,10,52,24.10
2016,06,04,10,53,24.10
2016,06,04,10,54,24.10
2016,06,04,10,55,24.20
2016,06,04,10,56,24.20
2016,06,04,10,57,24.20
2016,06,04,10,58,24.20
2016,06,04,10,59,24.10
2016,06,04,11,00,24.10
2016,06,04,11,01,24.10
2016,06,04,11,02,24.20
2016,06,04,11,03,24.20
2016,06,04,11,04,24.30
2016,06,04,11,05,24.30
2016,06,04,11,06,24.30
2016,06,04,11,07,24.20
2016,06,04,11,08,24.20
2016,06,04,11,09,24.30
2016,06,04,11,10,24.30
2016,06,04,11,11,24.30
2016,06,04,11,12,24.30
2016,06,04,11,13,24.30
2016,06,04,11,14,24.40
2016,06,04,11,15,24.40
2016,06,04,11,16,24.50
2016,06,04,11,17,24.60
2016,06,04,11,18,24.60
2016,06,04,11,19,24.60
2016,06,04,11,20,24.60
2016,06,04,11,21,24.70
2016,06,04,11,22,24.80
2016,06,04,11,23,24.90
2016,06,04,11,24,24.90
2016,06,04,11,25,24.80
2016,06,04,11,26,24.80
2016,06,04,11,27,24.80
2016,06,04,11,28,24.70
2016,06,04,11,29,24.70
2016,06,04,11,30,24.70
2016,06,04,11,31,24.80
2016,06,04,11,32,24.90
2016,06,04,11,33,24.90
2016,06,04,11,34,25.00
2016,06,04,11,35,25.10
2016,06,04,11,36,25.10
2016,06,04,11,37,25.10
2016,06,04,11,38,25.20
2016,06,04,11,39,25.20
2016,06,04,11,40,25.30
2016,06,04,11,41,25.30
2016,06,04,11,42,25.30
2016,06,04,11,43,25.30
2016,06,04,11,44,25.40
2016,06,04,11,45,25.40
2016,06,04,11,46,25.50
2016,06,04,11,47,25.60
2016,06,04,11,48,25.70
2016,06,04,11,49,25.70
2016,06,04,11,50,25.60
2016,06,04,11,51,25.50
2016,06,04,11,52,25.50
2016,06,04,11,53,25.50
2016,06,04,11,54,25.40
2016,06,04,11,55,25.40
2016,06,04,11,56,25.40
2016,06,04,11,57,25.20
2016,06,04,11,58,25.00
2016,06,04,11,59,24.90
2016,06,04,12,00,24.80
2016,06,04,12,01,24.80
2016,06,04,12,02,24.80
2016,06,04,12,03,24.90
2016,06,04,12,04,24.90
2016,06,04,12,05,24.90
2016,06,04,12,06,25.00
2016,06,04,12,07,25.20
2016,06,04,12,08,25.30
2016,06,04,12,09,25.40
2016,06,04,12,10,25.50
2016,06,04,12,11,25.60
2016,06,04,12,12,25.70
2016,06,04,12,13,25.70
2016,06,04,12,14,25.70
2016,06,04,12,15,25.70
2016,06,04,12,16,25.70
2016,06,04,12,17,25.70
2016,06,04,12,18,25.80
2016,06,04,12,19,25.80
2016,06,04,12,20,25.90
2016,06,04,12,21,26.00
2016,06,04,12,22,26.20
2016,06,04,12,23,26.30
2016,06,04,12,24,26.30
2016,06,04,12,25,26.30
2016,06,04,12,26,26.30
2016,06,04,12,27,26.30
2016,06,04,12,28,26.20
2016,06,04,12,29,26.10
2016,06,04,12,30,26.10
2016,06,04,12,31,26.10
2016,06,04,12,32,26.10
2016,06,04,12,33,26.10
2016,06,04,12,34,26.00
2016,06,04,12,35,25.90
2016,06,04,12,36,25.90
2016,06,04,12,37,25.90
2016,06,04,12,38,25.90
2016,06,04,12,39,25.90
2016,06,04,12,40,26.10
2016,06,04,12,41,26.10
2016,06,04,12,42,26.20
2016,06,04,12,43,26.20
2016,06,04,12,44,26.00
2016,06,04,12,45,25.90
2016,06,04,12,46,25.90
2016,06,04,12,47,25.90
2016,06,04,12,48,25.80
2016,06,04,12,49,25.60
2016,06,04,12,50,25.50
2016,06,04,12,51,25.40
2016,06,04,12,52,25.40
2016,06,04,12,53,25.30
2016,06,04,12,54,25.30
2016,06,04,12,55,25.30
2016,06,04,12,56,25.30
2016,06,04,12,57,25.20
2016,06,04,12,58,25.20
2016,06,04,12,59,25.20
2016,06,04,13,00,25.20
2016,06,04,13,01,25.20
2016,06,04,13,02,25.20
2016,06,04,13,03,25.30
2016,06,04,13,04,25.30
2016,06,04,13,05,25.40
2016,06,04,13,06,25.40
2016,06,04,13,07,25.50
2016,06,04,13,08,25.50
2016,06,04,13,09,25.50
2016,06,04,13,10,25.60
2016,06,04,13,11,25.70
2016,06,04,13,12,25.70
2016,06,04,13,13,25.80
2016,06,04,13,14,25.90
2016,06,04,13,15,25.90
2016,06,04,13,16,26.00
2016,06,04,13,17,26.10
2016,06,04,13,18,26.20
2016,06,04,13,19,26.30
2016,06,04,13,20,26.30
2016,06,04,13,21,26.30
2016,06,04,13,22,26.30
2016,06,04,13,23,26.30
2016,06,04,13,24,26.30
2016,06,04,13,25,26.30
2016,06,04,13,26,26.30
2016,06,04,13,27,26.30
2016,06,04,13,28,26.20
2016,06,04,13,29,26.20
2016,06,04,13,30,26.20
2016,06,04,13,31,26.10
2016,06,04,13,32,26.10
2016,06,04,13,33,26.20
2016,06,04,13,34,26.20
2016,06,04,13,35,26.20
2016,06,04,13,36,26.20
2016,06,04,13,37,26.20
2016,06,04,13,38,26.30
2016,06,04,13,39,26.30
2016,06,04,13,40,26.30
2016,06,04,13,41,26.30
2016,06,04,13,42,26.30
2016,06,04,13,43,26.30
2016,06,04,13,44,26.40
2016,06,04,13,45,26.40
2016,06,04,13,46,26.40
2016,06,04,13,47,26.40
2016,06,04,13,48,26.50
2016,06,04,13,49,26.50
2016,06,04,13,50,26.50
2016,06,04,13,51,26.60
2016,06,04,13,52,26.50
2016,06,04,13,53,26.50
2016,06,04,13,54,26.60
2016,06,04,13,55,26.70
2016,06,04,13,56,26.70
2016,06,04,13,57,26.80
2016,06,04,13,58,26.90
2016,06,04,13,59,27.00
2016,06,04,14,00,27.00
2016,06,04,14,01,27.10
2016,06,04,14,02,27.00
2016,06,04,14,03,27.00
2016,06,04,14,04,27.00
2016,06,04,14,05,27.00
2016,06,04,14,06,27.00
2016,06,04,14,07,27.00
2016,06,04,14,08,27.10
2016,06,04,14,09,27.20
2016,06,04,14,10,27.30
2016,06,04,14,11,27.30
2016,06,04,14,12,27.20
2016,06,04,14,13,27.20
2016,06,04,14,14,27.10
2016,06,04,14,15,27.10
2016,06,04,14,16,27.10
2016,06,04,14,17,27.10
2016,06,04,14,18,27.10
2016,06,04,14,19,27.10
2016,06,04,14,20,27.10
2016,06,04,14,21,27.10
2016,06,04,14,22,27.10
2016,06,04,14,23,27.10
2016,06,04,14,24,27.20
2016,06,04,14,25,27.10
2016,06,04,14,26,27.10
2016,06,04,14,27,27.20
2016,06,04,14,28,27.20
2016,06,04,14,29,27.30
2016,06,04,16,16,29.70
2016,06,04,16,17,29.60
2016,06,04,16,18,29.60
2016,06,04,16,19,29.50
2016,06,04,16,20,29.40
2016,06,04,16,21,29.40
2016,06,04,16,22,29.30
2016,06,04,16,23,29.30
2016,06,04,16,24,29.40
2016,06,04,16,25,29.40
2016,06,04,16,26,29.40
2016,06,04,16,27,29.30
2016,06,04,16,28,29.30
2016,06,04,16,29,29.30
2016,06,04,16,30,29.30
2016,06,04,16,31,29.20
2016,06,04,16,32,29.10
2016,06,04,16,33,29.10
2016,06,04,16,34,29.10
2016,06,04,16,35,29.10
2016,06,04,16,36,29.10
2016,06,04,16,37,29.10
2016,06,04,16,38,29.20
2016,06,04,16,39,29.20
2016,06,04,16,40,29.20
2016,06,04,16,41,29.20
2016,06,04,16,42,29.10
2016,06,04,16,43,29.10
2016,06,04,16,44,29.10
2016,06,04,16,45,29.10
2016,06,04,16,46,29.10
2016,06,04,16,47,29.10
2016,06,04,16,48,29.10
2016,06,04,16,49,29.00
2016,06,04,16,50,29.00
2016,06,04,16,51,29.00
2016,06,04,16,52,29.00
2016,06,04,16,53,28.90
2016,06,04,16,54,28.90
2016,06,04,16,55,28.90
2016,06,04,16,56,28.90
2016,06,04,16,57,28.90
2016,06,04,16,58,28.80
2016,06,04,16,59,28.80
2016,06,04,17,00,28.80
2016,06,04,17,01,28.80
2016,06,04,17,02,28.80
2016,06,04,17,03,28.70
2016,06,04,17,04,28.70
2016,06,04,17,05,28.80
2016,06,04,17,06,28.80
2016,06,04,17,07,28.70
2016,06,04,17,08,28.70
2016,06,04,17,09,28.70
2016,06,04,17,10,28.70
2016,06,04,17,11,28.70
2016,06,04,17,12,28.70
2016,06,04,17,13,28.70
2016,06,04,17,14,28.70
2016,06,04,17,15,28.70
2016,06,04,17,16,28.70
2016,06,04,17,17,28.60
2016,06,04,17,18,28.60
2016,06,04,17,19,28.50
2016,06,04,17,20,28.50
2016,06,04,17,21,28.40
2016,06,04,17,22,28.30
2016,06,04,17,23,28.30
2016,06,04,17,24,28.20
2016,06,04,17,25,28.20
2016,06,04,17,26,28.20
2016,06,04,17,27,28.20
2016,06,04,17,28,28.20
2016,06,04,17,29,28.20
2016,06,04,17,30,28.20
2016,06,04,17,31,28.20
2016,06,04,17,32,28.20
2016,06,04,17,33,28.20
2016,06,04,17,34,28.30
2016,06,04,17,35,28.30
2016,06,04,17,36,28.40
2016,06,04,17,37,28.40
2016,06,04,17,38,28.50
2016,06,04,17,39,28.60
2016,06,04,17,40,28.70
2016,06,04,17,41,28.60
2016,06,04,17,42,28.60
2016,06,04,17,43,28.70
2016,06,04,17,44,28.70
2016,06,04,17,45,28.70
2016,06,04,17,46,28.80
2016,06,04,17,47,28.90
2016,06,04,17,48,28.90
2016,06,04,17,49,29.00
2016,06,04,17,50,29.10
2016,06,04,17,51,29.20
2016,06,04,17,52,29.20
2016,06,04,17,53,29.20
2016,06,04,17,54,29.30
2016,06,04,17,55,29.30
2016,06,04,17,56,29.40
2016,06,04,17,57,29.40
2016,06,04,17,58,29.40
2016,06,04,17,59,29.40
2016,06,04,18,00,29.40
2016,06,04,18,01,29.30
2016,06,04,18,02,29.30
2016,06,04,18,03,29.30
2016,06,04,18,04,29.30
2016,06,04,18,05,29.30
2016,06,04,18,06,29.30
2016,06,04,18,07,29.30
2016,06,04,18,08,29.30
2016,06,04,18,09,29.40
2016,06,04,18,10,29.40
2016,06,04,18,11,29.40
2016,06,04,18,12,29.40
2016,06,04,18,13,29.30
2016,06,04,18,14,29.30
2016,06,04,18,15,29.20
2016,06,04,18,16,29.20
2016,06,04,18,17,29.20
2016,06,04,18,18,29.20
2016,06,04,18,19,29.20
2016,06,04,18,20,29.10
2016,06,04,18,21,29.10
2016,06,04,18,22,29.10
2016,06,04,18,23,29.10
2016,06,04,18,24,29.10
2016,06,04,18,25,29.00
2016,06,04,18,26,29.00
2016,06,04,18,27,29.00
2016,06,04,18,28,29.00
2016,06,04,18,29,28.90
2016,06,04,18,30,28.90
2016,06,04,18,31,29.00
2016,06,04,18,32,29.10
2016,06,04,18,33,29.10
2016,06,04,18,34,29.20
2016,06,04,18,35,29.10
2016,06,04,18,36,29.10
2016,06,04,18,37,29.10
2016,06,04,18,38,29.20
2016,06,04,18,39,29.20
2016,06,04,18,40,29.20
2016,06,04,18,41,29.20
2016,06,04,18,42,29.20
2016,06,04,18,43,29.10
2016,06,04,18,44,29.10
2016,06,04,18,45,29.10
2016,06,04,18,46,29.10
2016,06,04,18,47,29.10
2016,06,04,18,48,29.10
2016,06,04,18,49,29.10
2016,06,04,18,50,29.10
2016,06,04,18,51,29.10
2016,06,04,18,52,29.10
2016,06,04,18,53,29.10
2016,06,04,18,54,29.10
2016,06,04,18,55,29.10
2016,06,04,18,56,29.10
2016,06,04,18,57,29.00
2016,06,04,18,58,28.90
2016,06,04,18,59,28.90
2016,06,04,19,00,28.90
2016,06,04,19,01,28.90
2016,06,04,19,02,28.90
2016,06,04,19,03,28.80
2016,06,04,19,04,28.80
2016,06,04,19,05,28.80